Location: Unspecified
(49.9820°N, 20.4363°E)
Time: 10:37:56
(UTC+02:00)

ISS - Visible Passes

Search period start: 08 May 2026 00:00
Search period end: 18 May 2026 00:00
Orbit: 414 x 424 km, 51.6° (Epoch: 8 May)

Date Brightness Start Highest point End Pass type
(mag) Time Alt. Az. Time Alt. Az. Time Alt. Az.
8 May -1.3 01:01:31 16° E 01:01:31 16° E 01:02:19 10° E visible
8 May -3.9 02:34:31 33° W 02:35:51 71° SSW 02:39:12 10° ESE visible
8 May -2.2 04:09:52 10° W 04:12:14 18° SW 04:14:36 10° S visible
8 May -2.0 20:56:12 10° S 20:58:11 15° SE 21:00:11 10° ESE visible
8 May -3.9 22:31:12 10° WSW 22:34:29 62° SSE 22:35:05 51° ESE visible
9 May -1.0 00:08:00 10° W 00:08:14 12° W 00:08:14 12° W visible
9 May -1.5 01:50:54 16° ESE 01:50:54 16° ESE 01:51:40 10° ESE visible
9 May -2.8 03:24:03 23° WSW 03:24:50 26° SW 03:27:41 10° SSE visible
9 May -3.5 21:43:46 10° SW 21:46:58 45° SSE 21:50:11 10° ENE visible
9 May -3.6 23:20:23 10° W 23:23:43 70° N 23:24:23 51° NE visible
10 May -0.9 00:57:19 10° WNW 00:57:25 11° WNW 00:57:25 11° WNW visible
10 May -3.0 20:56:28 10° SSW 20:59:29 31° SSE 21:02:29 10° E visible
10 May -3.8 22:32:45 10° WSW 22:36:05 81° NNW 22:39:12 12° ENE visible
11 May -2.8 00:09:42 10° WNW 00:12:10 43° WNW 00:12:10 43° WNW visible
11 May -3.9 21:45:08 10° WSW 21:48:29 82° SSE 21:51:51 10° ENE visible
11 May -3.4 23:22:04 10° W 23:25:24 63° N 23:26:27 38° ENE visible
12 May -1.2 00:58:56 10° WNW 00:59:23 13° WNW 00:59:23 13° WNW visible
12 May -3.8 20:57:35 10° WSW 21:00:53 62° SSE 21:04:12 10° ENE visible
12 May -3.4 22:34:24 10° W 22:37:44 64° N 22:40:32 14° ENE visible
13 May -2.6 00:11:19 10° WNW 00:13:28 37° WNW 00:13:28 37° WNW visible
13 May -3.5 21:46:44 10° W 21:50:04 70° N 21:53:25 10° ENE visible
13 May -3.7 23:23:41 10° WNW 23:27:02 75° NNE 23:27:28 62° ENE visible
14 May -3.7 20:59:03 10° WSW 21:02:24 81° NNW 21:05:46 10° ENE visible
14 May -3.5 22:36:01 10° WNW 22:39:21 66° N 22:41:26 21° E visible
15 May -2.0 00:12:52 10° WNW 00:14:22 23° W 00:14:22 23° W visible
15 May -3.3 21:48:20 10° W 21:51:40 63° N 21:55:00 10° E visible
15 May -3.8 23:25:12 10° WNW 23:28:19 67° WSW 23:28:19 67° WSW visible
16 May -3.3 21:00:38 10° W 21:03:58 64° N 21:07:18 10° E visible
16 May -3.9 22:37:33 10° WNW 22:40:55 89° NE 22:42:14 34° ESE visible
17 May -1.3 00:14:35 10° W 00:15:10 13° W 00:15:10 13° W visible
17 May -3.6 21:49:52 10° WNW 21:53:13 75° NNE 21:56:10 13° E visible
17 May -2.6 23:26:46 10° W 23:29:06 31° WSW 23:29:06 31° WSW visible
